This demonstration page uses our WeatherBlox Daily Observations layout. Learn more.

Left ArrowRight Arrow

Hourly Observations for January 5, 2018

Temp ( °F °C ) Dew Point ( °F °C ) Humidity (%) Winds ( mph kmh ) Pressure ( in mb ) Visibility ( mi km ) Precip ( " mm )
12:15 am 00:15 Clear -4 -20 -6 -21 92 92 W 6 9 30.39 1029 10 16 N/A
12:35 am 00:35 Clear -4 -20 -6 -21 92 92 WNW 6 9 30.39 1029 10 16 N/A
12:55 am 00:55 Clear -6 -21 -8 -22 92 92 W 8 13 30.39 1029 10 16 N/A
1:15 am 01:15 Clear -6 -21 -8 -22 92 92 W 8 13 30.39 1029 10 16 N/A
1:35 am 01:35 Partly Cloudy -4 -20 -6 -21 92 92 W 6 9 30.39 1029 10 16 N/A
1:55 am 01:55 Mostly Cloudy -2 -19 -6 -21 84 84 W 3 6 30.39 1029 10 16 N/A
2:15 am 02:15 Cloudy -2 -19 -4 -20 92 92 W 6 9 30.39 1029 10 16 N/A
2:35 am 02:35 Cloudy N/A -4 -20 84 84 W 6 9 30.36 1028 10 16 N/A
2:55 am 02:55 Cloudy N/A -4 -20 84 84 W 9 15 30.36 1028 10 16 N/A
3:15 am 03:15 Cloudy N/A -4 -20 84 84 W 7 11 30.36 1028 10 16 N/A
3:35 am 03:35 Cloudy -2 -19 -4 -20 92 92 W 6 9 30.39 1029 10 16 N/A
3:55 am 03:55 Mostly Cloudy -2 -19 -6 -21 84 84 W 5 7 30.39 1029 10 16 N/A
4:15 am 04:15 Partly Cloudy -4 -20 -6 -21 92 92 WNW 5 7 30.39 1029 10 16 N/A
4:36 am 04:36 Partly Cloudy -6 -21 -8 -22 92 92 W 5 7 30.42 1030 10 16 N/A
4:55 am 04:55 Partly Cloudy -9 -23 -9 -23 100 100 WSW 7 11 30.42 1030 10 16 N/A
5:15 am 05:15 Clear -8 -22 -9 -23 92 92 SW 6 9 30.42 1030 10 16 N/A
5:35 am 05:35 Clear -8 -22 -8 -22 100 100 SW 5 7 30.42 1030 10 16 N/A
5:55 am 05:55 Clear -8 -22 -9 -23 92 92 WSW 6 9 30.42 1030 10 16 N/A
6:15 am 06:15 Clear -9 -23 -9 -23 100 100 WSW 6 9 30.42 1030 10 16 N/A
6:35 am 06:35 Clear -9 -23 -9 -23 100 100 W 5 7 30.42 1030 10 16 N/A
6:55 am 06:55 Clear -8 -22 -9 -23 92 92 W 5 7 30.42 1030 10 16 N/A
7:15 am 07:15 Clear -11 -24 -11 -24 100 100 W 5 7 30.42 1030 10 16 N/A
7:35 am 07:35 Clear -11 -24 -13 -25 91 91 W 6 9 30.42 1030 10 16 N/A
7:55 am 07:55 Clear -11 -24 -11 -24 100 100 W 7 11 30.45 1031 10 16 N/A
8:15 am 08:15 Sunny -11 -24 -11 -24 100 100 W 7 11 30.45 1031 10 16 N/A
8:35 am 08:35 Sunny -9 -23 -11 -24 92 92 WSW 8 13 30.45 1031 10 16 N/A
8:55 am 08:55 Sunny -8 -22 -9 -23 92 92 WSW 8 13 30.45 1031 10 16 N/A
9:15 am 09:15 Sunny -4 -20 -6 -21 92 92 WSW 7 11 30.45 1031 10 16 N/A
9:35 am 09:35 Sunny -2 -19 -4 -20 92 92 WSW 6 9 30.45 1031 10 16 N/A
10:15 am 10:15 Sunny 3 -16 -2 -19 78 78 W 8 13 30.45 1031 10 16 N/A
10:35 am 10:35 Sunny 5 -15 N/A 78 78 W 10 17 30.45 1031 10 16 N/A
10:55 am 10:55 Sunny 5 -15 N/A 78 78 W 9 15 30.45 1031 10 16 N/A
11:15 am 11:15 Sunny 9 -13 1 -17 72 72 WNW 15 24 30.45 1031 10 16 N/A
11:35 am 11:35 Sunny 9 -13 1 -17 72 72 WNW 15 24 30.45 1031 10 16 N/A
11:55 am 11:55 Sunny 9 -13 1 -17 72 72 W 13 20 30.45 1031 10 16 N/A
12:15 pm 12:15 Sunny 10 -12 N/A 61 61 WNW 14 22 30.45 1031 10 16 N/A
12:35 pm 12:35 Sunny 10 -12 N/A 61 61 NW 10 17 30.45 1031 10 16 N/A
12:55 pm 12:55 Sunny 10 -12 N/A 61 61 NW 13 20 30.45 1031 10 16 N/A
1:15 pm 13:15 Sunny 10 -12 1 -17 67 67 WNW 10 17 30.45 1031 10 16 N/A
1:35 pm 13:35 Sunny 10 -12 1 -17 67 67 WNW 12 19 30.45 1031 10 16 N/A
1:55 pm 13:55 Sunny 10 -12 1 -17 67 67 WNW 12 19 30.45 1031 10 16 N/A
2:15 pm 14:15 Sunny 10 -12 1 -17 67 67 WNW 10 17 30.45 1031 10 16 N/A
2:35 pm 14:35 Sunny 10 -12 1 -17 67 67 W 13 20 30.45 1031 10 16 N/A
2:55 pm 14:55 Sunny 10 -12 1 -17 67 67 W 12 19 30.45 1031 10 16 N/A
3:15 pm 15:15 Sunny 10 -12 1 -17 67 67 W 12 19 30.45 1031 10 16 N/A
3:35 pm 15:35 Sunny 10 -12 N/A 61 61 WNW 9 15 30.45 1031 10 16 N/A
3:55 pm 15:55 Sunny 10 -12 N/A 61 61 WNW 10 17 30.48 1032 10 16 N/A
4:15 pm 16:15 Sunny 9 -13 N/A 66 66 WNW 9 15 30.48 1032 10 16 N/A
4:35 pm 16:35 Sunny 9 -13 -2 -19 61 61 WNW 10 17 30.48 1032 10 16 N/A
4:55 pm 16:55 Sunny 9 -13 -2 -19 61 61 W 10 17 30.48 1032 10 16 N/A
5:15 pm 17:15 Sunny 7 -14 -2 -19 66 66 WNW 9 15 30.48 1032 10 16 N/A
5:35 pm 17:35 Clear 5 -15 -4 -20 66 66 WNW 8 13 30.48 1032 10 16 N/A
5:55 pm 17:55 Clear 3 -16 -4 -20 72 72 W 7 11 30.48 1032 10 16 N/A
6:15 pm 18:15 Clear 1 -17 -4 -20 78 78 WNW 7 11 30.53 1034 10 16 N/A
6:35 pm 18:35 Clear 1 -17 -6 -21 71 71 WNW 5 7 30.53 1034 10 16 N/A
6:55 pm 18:55 Clear N/A -6 -21 78 78 W 8 13 30.53 1034 10 16 N/A
7:15 pm 19:15 Clear 1 -17 -6 -21 71 71 WNW 6 9 30.53 1034 10 16 N/A
7:35 pm 19:35 Clear N/A -6 -21 78 78 WNW 5 7 30.53 1034 10 16 N/A
7:55 pm 19:55 Clear N/A -6 -21 78 78 W 6 9 30.53 1034 10 16 N/A
8:15 pm 20:15 Clear N/A -4 -20 84 84 W 6 9 30.56 1035 10 16 N/A
8:36 pm 20:36 Clear -4 -20 -8 -22 84 84 W 6 9 30.56 1035 10 16 N/A
8:55 pm 20:55 Clear -4 -20 -8 -22 84 84 W 6 9 30.56 1035 10 16 N/A
9:15 pm 21:15 Clear -4 -20 -6 -21 92 92 W 5 7 30.56 1035 10 16 N/A
9:35 pm 21:35 Clear -4 -20 -8 -22 84 84 W 5 7 30.56 1035 10 16 N/A
9:55 pm 21:55 Clear -6 -21 -8 -22 92 92 W 6 9 30.56 1035 10 16 N/A
10:15 pm 22:15 Clear -4 -20 -6 -21 92 92 W 6 9 30.56 1035 10 16 N/A
10:35 pm 22:35 Clear -6 -21 -8 -22 92 92 W 7 11 30.56 1035 10 16 N/A
10:55 pm 22:55 Clear -6 -21 -8 -22 92 92 W 6 9 30.56 1035 10 16 N/A
11:15 pm 23:15 Clear -6 -21 -8 -22 92 92 W 5 7 30.56 1035 10 16 N/A
11:35 pm 23:35 Clear -6 -21 -8 -22 92 92 W 5 7 30.56 1035 10 16 N/A
11:55 pm 23:55 Clear -4 -20 -6 -21 92 92 W 6 9 30.56 1035 10 16 N/A

Powered by AerisWeather